This demonstration page uses our WeatherBlox Daily Observations layout. Learn more.

Left ArrowRight Arrow

Hourly Observations for September 5, 2019

Temp ( °F °C ) Dew Point ( °F °C ) Humidity (%) Winds ( mph kmh ) Pressure ( in mb ) Visibility ( mi km ) Precip ( " mm )
12:53 am 00:53 Clear 78 25.6 64 17.8 62 62 S 3 6 29.90 1013 10 16 0.00 0.00
1:53 am 01:53 Clear 77 25 63 17.2 62 62 WNW 3 6 29.90 1013 10 16 0.00 0.00
2:53 am 02:53 Clear 76 24.4 63 17.2 64 64 Calm 29.89 1012 10 16 0.00 0.00
3:53 am 03:53 Clear 76 24.4 63 17.2 64 64 Calm 29.88 1012 10 16 0.00 0.00
4:53 am 04:53 Clear 76 24.4 65 18.3 69 69 Calm 29.88 1012 10 16 0.00 0.00
5:53 am 05:53 Clear 76 24.4 64 17.8 67 67 NNW 5 7 29.88 1012 10 16 0.00 0.00
6:53 am 06:53 Clear 75 23.9 66 18.9 74 74 NW 8 13 29.90 1013 10 16 0.00 0.00
7:53 am 07:53 Sunny 75 23.9 67 19.4 76 76 NNW 5 7 29.92 1013 10 16 0.00 0.00
8:53 am 08:53 Sunny 75 23.9 68 20 79 79 VRB 5 7 29.93 1014 10 16 0.00 0.00
9:53 am 09:53 Sunny 78 25.6 70 21.1 76 76 NW 8 13 29.93 1014 10 16 0.00 0.00
10:53 am 10:53 Sunny 85 29.4 69 20.6 59 59 NW 12 19 29.91 1013 10 16 0.00 0.00
11:53 am 11:53 Sunny 90 32.2 67 19.4 47 47 NNW 9 15 29.90 1013 10 16 0.00 0.00
12:53 pm 12:53 Sunny 91 32.8 62 16.7 38 38 N 13 20 29.89 1012 10 16 0.00 0.00
1:53 pm 13:53 Sunny 93 33.9 62 16.7 36 36 WNW 14 22 29.87 1012 10 16 0.00 0.00
2:53 pm 14:53 Sunny 93 33.9 56 13.3 29 29 NNW 9 15 29.85 1011 10 16 0.00 0.00
3:53 pm 15:53 Sunny 94 34.4 57 13.9 29 29 N 7 11 29.84 1010 10 16 0.00 0.00
4:53 pm 16:53 Sunny 94 34.4 58 14.4 30 30 NW 8 13 29.83 1010 10 16 0.00 0.00
5:53 pm 17:53 Sunny 92 33.3 56 13.3 30 30 NW 16 26 29.83 1010 10 16 0.00 0.00
6:53 pm 18:53 Sunny 90 32.2 57 13.9 33 33 WNW 8 13 29.84 1011 10 16 0.00 0.00
7:53 pm 19:53 Mostly Sunny 86 30 57 13.9 37 37 NW 8 13 29.85 1011 10 16 0.00 0.00
8:53 pm 20:53 Clear 83 28.3 58 14.4 43 43 WNW 9 15 29.86 1011 10 16 0.00 0.00
9:53 pm 21:53 Clear 81 27.2 58 14.4 45 45 NW 8 13 29.88 1012 10 16 0.00 0.00
10:53 pm 22:53 Clear 79 26.1 59 15 50 50 NNW 6 9 29.88 1012 10 16 0.00 0.00
11:53 pm 23:53 Clear 77 25 59 15 54 54 NW 7 11 29.88 1012 10 16 0.00 0.00

Powered by AerisWeather